period_start,C,m1,H,J0,J1,J2,J3,J4,J5,JA,JB,JC,JD,JJ,JK,JN,#
2016-02-28 00:01:00,0.07,7.65,0.00,21.24,25.67,29.37,14.76,48.23,1030.29,2034.98,1585.46,1702.95,1907.78,599.79,607.44,58.93,0000 0000 0000 0000 000000
2016-02-28 00:06:01,0.08,7.66,0.00,21.25,25.66,29.34,14.89,48.37,1030.29,2034.99,1584.93,1702.27,1907.08,599.78,607.34,58.98,0000 0000 0000 0000 000000
2016-02-28 00:11:03,0.06,7.66,0.00,21.23,25.65,29.34,14.87,48.37,1030.27,2034.98,1584.11,1702.01,1906.93,600.07,607.75,59.03,0000 0000 0000 0000 000000
2016-02-28 00:16:04,0.09,7.67,0.00,21.24,25.65,29.30,14.89,48.39,1030.28,2034.99,1583.41,1701.91,1906.17,600.26,607.85,59.08,0000 0000 0000 0000 000000
2016-02-28 00:21:05,0.08,7.67,0.00,21.27,25.65,29.36,14.85,48.34,1030.27,2034.99,1582.85,1701.19,1905.98,600.02,607.60,59.13,0000 0000 0000 0000 000000
2016-02-28 00:26:06,-0.00,7.67,0.00,21.27,25.64,29.33,14.97,48.32,1030.21,2034.99,1582.70,1701.01,1905.85,600.27,607.74,59.18,0000 0000 0000 0000 000000
2016-02-28 00:31:08,0.07,7.67,0.00,21.23,25.64,29.29,14.86,48.23,1030.14,2034.99,1582.45,1700.98,1905.42,600.21,607.80,59.23,0000 0000 0000 0000 000000
2016-02-28 00:36:09,0.11,7.68,0.00,21.28,25.63,29.35,14.95,47.99,1030.11,2034.99,1581.47,1700.33,1904.99,600.11,607.58,59.28,0000 0000 0000 0000 000000
2016-02-28 00:41:11,-0.02,7.68,0.00,21.29,25.63,29.32,14.84,47.83,1030.25,2034.98,1581.77,1700.39,1904.86,600.33,607.87,59.34,0000 0000 0000 0000 000000
2016-02-28 00:46:12,0.08,7.68,0.00,21.31,25.62,29.37,14.80,48.12,1030.25,2034.98,1580.98,1700.00,1904.07,599.90,607.41,59.39,0000 0000 0000 0000 000000
2016-02-28 00:51:13,0.12,7.69,0.00,21.33,25.62,29.37,14.82,47.87,1030.24,2034.98,1580.10,1699.49,1903.77,599.37,606.96,59.44,0000 0000 0000 0000 000000
2016-02-28 00:56:15,0.08,7.69,0.00,21.33,25.62,29.38,14.81,48.02,1030.20,2034.99,1579.17,1699.01,1903.05,599.62,607.10,59.49,0000 0000 0000 0000 000000
2016-02-28 01:01:16,0.05,7.70,0.00,21.37,25.62,29.32,14.86,47.98,1030.08,2034.98,1578.84,1698.82,1902.80,600.54,607.89,59.54,0000 0000 0000 0000 000000
2016-02-28 01:06:17,0.11,7.70,0.00,21.38,25.63,29.38,14.91,47.79,1029.86,2034.99,1578.02,1698.15,1902.08,600.40,607.48,59.59,0000 0000 0000 0000 000000
2016-02-28 01:11:19,0.05,7.70,0.00,21.39,25.64,29.38,14.86,48.21,1029.83,2034.99,1577.50,1697.99,1901.91,600.11,607.19,59.64,0000 0000 0000 0000 000000
2016-02-28 01:16:20,0.08,7.71,0.00,21.40,25.64,29.36,14.87,48.44,1029.80,2034.99,1577.00,1697.65,1901.20,600.11,607.17,59.69,0000 0000 0000 0000 000000
2016-02-28 01:21:21,0.02,7.71,0.00,21.45,25.65,29.39,14.74,47.62,1029.82,2034.99,1576.97,1697.12,1901.01,599.81,606.86,59.74,0000 0000 0000 0000 000000
2016-02-28 01:26:23,0.07,7.71,0.00,21.48,25.67,29.44,14.78,47.63,1029.83,2034.98,1576.32,1697.00,1900.74,600.13,606.96,59.79,0000 0000 0000 0000 000000
2016-02-28 01:31:25,0.12,7.72,0.00,21.50,25.67,29.43,14.83,48.52,1029.82,2034.98,1575.46,1696.50,1900.03,599.89,606.78,59.84,0000 0000 0000 0000 000000
2016-02-28 01:36:26,0.02,7.72,0.00,21.53,25.70,29.47,14.83,47.80,1029.82,2034.93,1575.01,1696.02,1899.90,600.41,607.27,59.89,0000 0000 0000 0000 000000
2016-02-28 01:41:27,0.08,7.72,0.00,21.55,25.71,29.48,14.79,48.52,1029.80,2034.83,1574.40,1695.86,1899.10,599.93,606.55,59.94,0000 0000 0000 0000 000000
2016-02-28 01:46:28,0.12,7.73,0.00,21.57,25.73,29.49,14.91,49.04,1029.81,2034.66,1573.32,1695.09,1898.34,600.18,606.89,59.99,0000 0000 0000 0000 000000
2016-02-28 01:51:29,-0.02,7.73,0.00,21.58,25.75,29.56,14.93,49.10,1029.81,2034.39,1572.87,1694.87,1897.99,600.44,607.13,60.04,0000 0000 0000 0000 000000
2016-02-28 01:56:31,0.09,7.74,0.00,21.60,25.78,29.55,14.83,49.06,1029.81,2034.16,1572.10,1694.10,1897.44,599.91,606.44,60.09,0000 0000 0000 0000 000000
2016-02-28 02:01:32,0.05,2.32,0.00,21.62,25.83,29.55,13.23,43.76,1029.80,2037.53,3000.56,2720.19,3079.85,537.35,543.25,0.03,0000 0000 0000 0000 000002
2016-02-28 02:06:34,0.05,0.00,0.00,21.65,25.84,29.58,14.79,48.50,1029.80,2039.00,3608.90,3158.63,3586.03,599.87,606.31,0.05,0000 0000 0000 0000 000000
2016-02-28 02:11:35,0.05,0.00,0.00,21.67,25.85,29.62,14.93,48.52,1029.77,2039.00,3606.68,3157.49,3584.63,600.30,606.77,0.10,0000 0000 0000 0000 000000
2016-02-28 02:16:36,0.06,0.01,0.00,21.69,25.87,29.66,14.85,48.39,1029.78,2038.99,3604.88,3156.29,3583.26,600.17,606.51,0.15,0000 0000 0000 0000 000000
2016-02-28 02:21:37,0.07,0.01,0.00,21.73,25.89,29.67,14.84,48.34,1029.78,2038.96,3602.99,3155.19,3581.85,599.82,606.29,0.20,0000 0000 0000 0000 000000
2016-02-28 02:26:38,0.07,0.01,0.00,21.74,25.91,29.67,14.85,48.29,1029.80,2038.94,3601.19,3154.07,3580.65,600.11,606.41,0.25,0000 0000 0000 0000 000000
2016-02-28 02:31:40,0.06,0.01,0.00,21.75,25.92,29.70,14.76,48.05,1029.80,2038.75,3599.45,3152.95,3579.17,599.77,606.21,0.30,0000 0000 0000 0000 000000
2016-02-28 02:36:41,0.05,0.02,0.00,21.77,25.95,29.68,14.84,47.97,1029.80,2038.47,3597.93,3151.88,3577.68,599.71,606.05,0.35,0000 0000 0000 0000 000000
2016-02-28 02:41:43,0.04,0.02,0.00,21.81,25.96,29.71,14.76,47.98,1029.80,2038.24,3596.22,3150.87,3576.52,599.93,606.09,0.40,0000 0000 0000 0000 000000
2016-02-28 02:46:44,0.05,0.02,0.00,21.83,25.98,29.76,14.84,47.73,1029.79,2038.09,3594.60,3149.83,3575.15,600.36,606.46,0.45,0000 0000 0000 0000 000000
2016-02-28 02:51:45,0.07,0.03,0.00,21.84,26.00,29.77,14.77,47.48,1029.80,2038.04,3593.07,3148.74,3573.69,600.04,606.28,0.50,0000 0000 0000 0000 000000
2016-02-28 02:56:46,0.07,0.03,0.00,21.87,26.02,29.82,14.89,47.70,1029.80,2038.02,3591.21,3147.66,3572.62,600.26,606.29,0.55,0000 0000 0000 0000 000000
2016-02-28 03:01:48,0.07,0.03,0.00,21.87,26.03,29.83,14.91,47.81,1029.80,2038.01,3589.55,3146.60,3571.30,600.23,606.36,0.60,0000 0000 0000 0000 000000
2016-02-28 03:06:49,0.07,0.04,0.00,21.89,26.05,29.85,14.85,47.63,1029.80,2038.00,3587.84,3145.48,3569.93,599.75,605.64,0.65,0000 0000 0000 0000 000000
2016-02-28 03:11:50,0.06,0.04,0.00,21.94,26.07,29.80,14.75,47.69,1029.80,2038.00,3586.38,3144.47,3568.55,599.88,605.80,0.70,0000 0000 0000 0000 000000
2016-02-28 03:16:52,0.07,0.04,0.00,21.99,26.10,29.89,14.83,47.93,1029.77,2038.00,3584.63,3143.42,3567.33,600.49,606.26,0.75,0000 0000 0000 0000 000000
2016-02-28 03:21:53,0.09,0.05,0.00,22.00,26.12,29.89,14.87,48.23,1029.70,2038.00,3582.74,3141.96,3565.72,600.40,606.13,0.80,0000 0000 0000 0000 000000
2016-02-28 03:26:55,0.08,0.05,0.00,22.02,26.14,29.94,14.80,48.16,1029.59,2037.98,3580.87,3140.72,3564.27,599.75,605.45,0.85,0000 0000 0000 0000 000000
2016-02-28 03:31:56,0.08,0.06,0.00,22.06,26.17,29.97,14.81,48.31,1029.39,2037.97,3578.91,3139.42,3562.64,600.07,605.48,0.90,0000 0000 0000 0000 000000
2016-02-28 03:36:58,0.10,0.06,0.00,22.09,26.20,29.98,14.69,48.06,1029.46,2037.96,3576.72,3137.84,3560.73,599.60,605.04,0.95,0000 0000 0000 0000 000000
2016-02-28 03:41:59,0.10,0.07,0.00,22.11,26.23,30.03,14.79,47.67,1029.47,2037.77,3574.00,3136.00,3558.41,600.33,605.63,1.00,0000 0000 0000 0000 000000
2016-02-28 03:47:00,0.10,0.07,0.00,22.13,26.27,30.09,14.75,47.53,1029.49,2037.18,3570.68,3133.75,3555.34,599.74,605.12,1.05,0000 0000 0000 0000 000000
2016-02-28 03:52:01,0.16,0.08,0.00,22.16,26.31,30.13,14.77,47.11,1029.45,2037.00,3567.10,3131.22,3552.21,599.66,604.95,1.10,0000 0000 0000 0000 000000
2016-02-28 03:57:02,0.12,0.09,0.00,22.19,26.34,30.17,14.76,47.16,1029.39,2037.00,3563.84,3129.03,3549.69,599.40,604.57,1.15,0000 0000 0000 0000 000000
2016-02-28 04:02:03,0.13,0.09,0.00,22.23,26.37,30.18,14.89,47.85,1029.32,2036.99,3560.81,3127.12,3547.51,600.26,605.24,1.20,0000 0000 0000 0000 000000
2016-02-28 04:07:04,0.15,0.10,0.00,22.25,26.40,30.18,14.72,47.38,1029.32,2036.99,3557.31,3124.84,3545.02,600.01,605.04,1.25,0000 0000 0000 0000 000000
2016-02-28 04:12:06,0.14,0.11,0.00,22.29,26.43,30.20,14.74,47.33,1029.32,2036.94,3553.87,3122.54,3542.32,599.80,604.73,1.30,0000 0000 0000 0000 000000
2016-02-28 04:17:07,0.10,0.11,0.00,22.33,26.46,30.28,14.77,47.91,1029.32,2036.66,3550.63,3120.29,3539.77,600.25,605.11,1.35,0000 0000 0000 0000 000000
2016-02-28 04:22:08,0.11,0.12,0.00,22.36,26.49,30.30,14.82,47.63,1029.33,2036.14,3547.54,3118.08,3537.17,599.86,604.68,1.40,0000 0000 0000 0000 000000
2016-02-28 04:27:09,0.19,0.13,0.00,22.41,26.53,30.28,14.75,47.61,1029.31,2036.03,3543.32,3114.99,3533.53,600.28,604.99,1.45,0000 0000 0000 0000 000000
2016-02-28 04:32:11,0.13,0.13,0.00,22.43,26.56,30.29,14.77,47.70,1029.31,2036.00,3540.17,3112.80,3531.14,599.46,604.21,1.50,0000 0000 0000 0000 000000
2016-02-28 04:37:12,0.14,0.14,0.00,22.48,26.59,30.37,14.83,47.24,1029.31,2036.00,3537.21,3110.73,3528.54,600.06,604.60,1.55,0000 0000 0000 0000 000000
2016-02-28 04:42:14,0.19,0.15,0.00,22.49,26.63,30.38,14.73,46.85,1029.31,2035.98,3533.24,3107.86,3525.11,600.01,604.46,1.60,0000 0000 0000 0000 000000
2016-02-28 04:47:15,0.19,0.16,0.00,22.51,26.66,30.45,14.79,47.38,1029.31,2035.63,3528.24,3104.38,3521.18,600.51,605.00,1.65,0000 0000 0000 0000 000000
2016-02-28 04:52:16,0.17,0.17,0.00,22.55,26.69,30.47,14.79,47.97,1029.31,2035.16,3523.37,3100.95,3517.56,599.79,604.15,1.70,0000 0000 0000 0000 000000
2016-02-28 04:57:18,0.16,0.18,0.00,22.57,26.71,30.45,14.67,47.16,1029.31,2035.03,3519.25,3098.13,3514.44,599.87,604.23,1.75,0000 0000 0000 0000 000000
2016-02-28 05:02:19,0.18,0.19,0.00,22.57,26.74,30.46,14.68,47.47,1029.31,2035.00,3515.30,3095.40,3511.38,600.00,604.32,1.80,0000 0000 0000 0000 000000
2016-02-28 05:07:20,0.16,0.20,0.00,22.61,26.76,30.51,14.70,47.02,1029.31,2035.00,3511.59,3092.73,3508.07,599.70,603.97,1.85,0000 0000 0000 0000 000000
2016-02-28 05:12:22,0.15,0.20,0.00,22.63,26.80,30.51,14.73,47.41,1029.30,2035.00,3508.13,3090.34,3505.27,600.03,604.26,1.90,0000 0000 0000 0000 000000
2016-02-28 05:17:23,0.11,0.21,0.00,22.65,26.81,30.58,14.71,47.55,1029.30,2034.97,3505.12,3088.52,3503.45,599.32,603.48,1.95,0000 0000 0000 0000 000000
2016-02-28 05:22:24,0.13,0.21,0.00,22.67,26.84,30.58,14.82,47.08,1029.29,2034.97,3502.52,3086.60,3500.97,600.38,604.51,2.00,0000 0000 0000 0000 000000
2016-02-28 05:27:26,0.13,0.22,0.00,22.68,26.87,30.62,14.72,46.92,1029.31,2034.77,3499.26,3084.18,3497.93,600.02,604.01,2.05,0000 0000 0000 0000 000000
2016-02-28 05:32:27,0.05,0.23,0.00,22.69,26.90,30.65,14.79,47.13,1029.31,2034.17,3496.47,3082.14,3495.46,600.19,604.17,2.10,0000 0000 0000 0000 000000
2016-02-28 05:37:28,0.10,0.23,0.00,22.72,26.91,30.69,14.80,47.25,1029.29,2034.01,3494.00,3080.57,3493.68,599.91,603.92,2.15,0000 0000 0000 0000 000000
2016-02-28 05:42:30,0.12,0.24,0.00,22.74,26.94,30.69,14.75,47.38,1029.30,2034.00,3491.30,3078.72,3491.61,599.99,603.94,2.20,0000 0000 0000 0000 000000
2016-02-28 05:47:31,0.19,0.25,0.00,22.92,26.97,30.68,14.69,47.04,1029.30,2034.00,3487.41,3075.95,3488.39,599.85,603.49,2.25,0000 0000 0000 0000 000000
2016-02-28 05:52:32,0.12,0.25,0.00,22.96,27.01,30.75,14.72,47.23,1029.30,2034.00,3484.35,3073.73,3485.82,600.16,603.71,2.30,0000 0000 0000 0000 000000
2016-02-28 05:57:34,0.13,0.26,0.00,22.88,27.04,30.84,14.73,47.27,1029.16,2033.97,3481.22,3071.77,3483.67,600.08,603.71,2.36,0000 0000 0000 0000 000000
2016-02-28 06:02:35,0.09,0.27,0.00,22.83,27.06,30.83,14.75,47.26,1028.98,2033.92,3478.52,3070.11,3481.68,599.95,603.53,2.41,0000 0000 0000 0000 000000
2016-02-28 06:07:36,0.10,0.27,0.00,22.80,27.08,30.84,14.79,47.16,1029.05,2033.90,3476.17,3068.57,3479.90,600.41,604.12,2.46,0000 0000 0000 0000 000000
2016-02-28 06:12:38,0.03,0.27,0.00,22.81,27.10,30.78,14.73,46.83,1029.05,2033.50,3474.40,3067.24,3477.97,600.12,603.83,2.51,0000 0000 0000 0000 000000
2016-02-28 06:17:39,0.12,0.28,0.00,22.83,27.11,30.84,14.76,46.75,1028.97,2033.09,3472.00,3065.48,3475.74,600.18,603.69,2.56,0000 0000 0000 0000 000000
2016-02-28 06:22:40,0.17,0.29,0.00,22.95,27.13,30.86,14.65,46.78,1028.90,2033.04,3468.05,3062.80,3472.75,599.87,603.26,2.61,0000 0000 0000 0000 000000
2016-02-28 06:27:41,0.17,0.29,0.00,23.03,27.16,30.89,14.68,46.91,1028.90,2033.01,3464.19,3060.15,3469.82,600.20,603.31,2.66,0000 0000 0000 0000 000000
2016-02-28 06:32:43,0.16,0.30,0.00,23.15,27.19,30.97,14.77,47.28,1029.09,2033.00,3460.34,3057.54,3466.84,600.62,603.67,2.71,0000 0000 0000 0000 000000
2016-02-28 06:37:44,0.18,0.31,0.00,23.05,27.20,31.09,14.78,48.27,1029.19,2033.00,3456.10,3054.72,3463.77,599.96,603.26,2.76,0000 0000 0000 0000 000000
2016-02-28 06:42:45,0.15,0.32,0.00,22.96,27.21,31.03,14.74,48.09,1029.18,2032.99,3452.57,3052.35,3461.15,600.00,603.50,2.81,0000 0000 0000 0000 000000
2016-02-28 06:47:47,0.12,0.33,0.00,22.92,27.22,30.96,14.72,47.85,1029.06,2032.99,3449.73,3050.43,3458.96,599.73,603.23,2.86,0000 0000 0000 0000 000000
2016-02-28 06:52:48,0.12,0.33,0.00,22.89,27.22,30.92,14.72,47.37,1029.05,2032.98,3447.05,3048.58,3456.68,599.95,603.43,2.91,0000 0000 0000 0000 000000
2016-02-28 06:57:49,0.12,0.34,0.00,22.89,27.25,30.91,14.73,47.09,1028.95,2032.98,3444.21,3046.71,3454.59,599.98,603.38,2.96,0000 0000 0000 0000 000000
2016-02-28 07:02:51,0.12,0.35,0.00,22.88,27.25,30.94,14.66,46.88,1028.97,2032.97,3441.46,3044.81,3452.39,599.73,603.26,3.01,0000 0000 0000 0000 000000
2016-02-28 07:07:52,0.19,0.35,0.00,22.97,27.26,30.93,14.74,46.81,1028.85,2032.96,3437.66,3042.11,3449.21,600.13,603.41,3.06,0000 0000 0000 0000 000000
2016-02-28 07:12:53,0.14,0.36,0.00,23.10,27.29,30.93,14.72,46.83,1028.86,2032.91,3434.24,3039.71,3446.38,600.07,603.07,3.11,0000 0000 0000 0000 000000
2016-02-28 07:17:54,0.12,0.37,0.00,23.13,27.31,31.12,14.74,46.81,1028.84,2032.50,3430.67,3037.21,3443.51,600.12,603.09,3.16,0000 0000 0000 0000 000000
2016-02-28 07:22:56,0.14,0.38,0.00,23.17,27.32,31.22,14.76,47.19,1028.84,2032.14,3426.77,3034.58,3440.68,600.51,603.31,3.21,0000 0000 0000 0000 000000
2016-02-28 07:27:57,0.18,0.38,0.00,23.14,27.34,31.27,14.69,47.64,1028.84,2032.06,3422.68,3031.81,3437.44,599.29,602.24,3.26,0000 0000 0000 0000 000000
2016-02-28 07:32:58,0.13,0.39,0.00,23.06,27.35,31.23,14.71,46.70,1028.83,2032.00,3419.40,3029.51,3434.66,600.15,603.19,3.31,0000 0000 0000 0000 000000
2016-02-28 07:37:59,0.13,0.40,0.00,22.97,27.36,31.07,14.72,46.72,1028.83,2032.00,3416.52,3027.67,3432.64,599.86,603.09,3.36,0000 0000 0000 0000 000000
2016-02-28 07:43:01,0.18,0.41,0.00,22.92,27.35,31.04,14.68,46.71,1028.81,2032.00,3412.42,3025.12,3429.84,599.83,603.18,3.41,0000 0000 0000 0000 000000
2016-02-28 07:48:02,0.18,0.42,0.00,22.93,27.35,31.01,14.75,46.70,1028.76,2032.00,3408.35,3022.46,3426.92,600.39,603.60,3.46,0000 0000 0000 0000 000000
2016-02-28 07:53:04,0.14,0.42,0.00,23.07,27.35,30.98,14.69,47.90,1028.50,2032.00,3404.78,3020.18,3424.37,600.41,603.23,3.51,0000 0000 0000 0000 000000
2016-02-28 07:58:05,0.12,0.43,0.00,23.07,27.35,31.02,14.69,47.20,1028.63,2032.00,3402.12,3018.32,3422.01,599.57,602.54,3.56,0000 0000 0000 0000 000000
2016-02-28 08:03:07,0.11,0.44,0.00,22.99,27.35,31.07,14.75,46.70,1028.70,2032.00,3399.68,3016.72,3420.11,600.08,603.22,3.61,0000 0000 0000 0000 000000
2016-02-28 08:08:08,0.24,0.45,0.00,22.92,27.35,31.02,14.75,46.64,1028.60,2032.00,3395.11,3013.60,3416.56,600.15,603.38,3.66,0000 0000 0000 0000 000000
2016-02-28 08:13:09,0.19,0.46,0.00,22.89,27.34,31.00,14.70,46.46,1028.48,2032.00,3390.49,3010.36,3412.85,599.83,603.03,3.71,0000 0000 0000 0000 000000
2016-02-28 08:18:10,0.12,0.46,0.00,22.88,27.32,31.04,14.64,46.35,1028.35,2032.00,3387.38,3008.44,3410.65,599.86,603.23,3.76,0000 0000 0000 0000 000000
2016-02-28 08:23:11,0.13,0.47,0.00,22.90,27.31,30.98,14.74,46.77,1028.35,2032.00,3384.33,3006.62,3408.49,600.66,603.77,3.81,0000 0000 0000 0000 000000
2016-02-28 08:28:12,0.16,0.48,0.00,22.97,27.29,30.92,14.74,48.08,1028.35,2032.00,3380.67,3004.23,3405.68,599.91,602.88,3.86,0000 0000 0000 0000 000000
2016-02-28 08:33:14,0.20,0.49,0.00,23.11,27.29,30.96,14.62,47.17,1028.36,2032.00,3376.61,3001.38,3402.36,599.31,602.06,3.91,0000 0000 0000 0000 000000
2016-02-28 08:38:15,0.13,0.50,0.00,23.01,27.30,31.03,14.70,46.52,1028.35,2032.00,3373.22,2999.00,3399.61,599.98,602.87,3.96,0000 0000 0000 0000 000000
2016-02-28 08:43:16,0.06,0.50,0.00,22.90,27.28,30.99,14.75,46.38,1028.34,2032.00,3371.36,2997.92,3398.18,600.21,603.38,4.01,0000 0000 0000 0000 000000
2016-02-28 08:48:18,0.07,0.51,0.00,22.84,27.27,30.95,14.73,46.58,1028.34,2032.00,3369.59,2996.90,3397.18,600.31,603.54,4.06,0000 0000 0000 0000 000000
2016-02-28 08:53:19,0.08,0.51,0.00,22.80,27.26,30.95,14.79,46.39,1028.34,2032.04,3367.85,2995.83,3395.98,600.30,603.53,4.11,0000 0000 0000 0000 000000
2016-02-28 08:58:21,0.10,0.51,0.00,22.77,27.24,30.95,14.67,46.38,1028.34,2032.04,3365.83,2994.48,3394.27,599.78,603.14,4.16,0000 0000 0000 0000 000000
2016-02-28 09:03:22,0.11,0.52,0.00,22.73,27.22,30.89,14.80,46.47,1028.32,2032.11,3363.48,2992.90,3392.44,599.93,603.34,4.21,0000 0000 0000 0000 000000
2016-02-28 09:08:23,0.13,0.53,0.00,22.71,27.20,30.86,14.79,46.33,1028.27,2032.39,3361.24,2991.55,3390.78,600.28,603.69,4.26,0000 0000 0000 0000 000000
2016-02-28 09:13:25,0.11,0.53,0.00,22.70,27.18,30.87,14.70,46.29,1028.31,2032.51,3358.83,2989.89,3389.01,599.78,603.32,4.31,0000 0000 0000 0000 000000
2016-02-28 09:18:26,0.12,0.54,0.00,22.69,27.16,30.87,14.75,46.30,1028.25,2032.62,3356.58,2988.45,3387.14,599.69,603.18,4.36,0000 0000 0000 0000 000000
2016-02-28 09:23:28,0.14,0.55,0.00,22.69,27.13,30.83,14.67,46.38,1028.07,2032.91,3354.04,2986.81,3385.38,599.97,603.33,4.41,0000 0000 0000 0000 000000
2016-02-28 09:28:29,0.10,0.55,0.00,22.66,27.11,30.83,14.70,46.33,1027.88,2032.96,3351.54,2985.27,3383.54,599.58,602.93,4.46,0000 0000 0000 0000 000000
2016-02-28 09:33:30,0.09,0.56,0.00,22.64,27.09,30.77,14.68,46.29,1027.86,2032.99,3349.42,2983.88,3381.81,599.98,603.22,4.51,0000 0000 0000 0000 000000
2016-02-28 09:38:31,0.10,0.56,0.00,22.63,27.06,30.74,14.72,46.28,1027.85,2032.99,3347.13,2982.47,3380.25,599.72,603.09,4.56,0000 0000 0000 0000 000000
2016-02-28 09:43:33,0.16,0.57,0.00,22.62,27.03,30.74,14.78,47.97,1027.86,2032.99,3343.73,2980.37,3378.13,600.28,603.65,4.62,0000 0000 0000 0000 000000
2016-02-28 09:48:34,0.13,0.58,0.00,22.58,26.99,30.68,14.75,47.87,1027.85,2032.99,3340.48,2978.26,3375.70,600.00,603.42,4.67,0000 0000 0000 0000 000000
2016-02-28 09:53:35,0.18,0.59,0.00,22.55,26.96,30.63,14.70,47.76,1027.85,2033.02,3336.60,2975.79,3373.02,599.59,603.25,4.72,0000 0000 0000 0000 000000
2016-02-28 09:58:36,0.22,0.60,0.00,22.53,26.94,30.65,14.70,47.18,1027.85,2033.12,3332.29,2972.96,3369.82,599.48,603.04,4.77,0000 0000 0000 0000 000000
2016-02-28 10:03:38,0.21,0.61,0.00,22.52,26.92,30.66,14.69,46.82,1027.85,2033.38,3328.06,2970.17,3366.69,599.54,603.18,4.82,0000 0000 0000 0000 000000
2016-02-28 10:08:39,0.21,0.62,0.00,22.51,26.92,30.65,14.78,46.58,1027.82,2033.70,3324.23,2967.45,3363.45,599.84,603.36,4.87,0000 0000 0000 0000 000000
2016-02-28 10:13:40,0.11,0.62,0.00,22.50,26.90,30.61,14.72,46.41,1027.64,2033.76,3321.60,2965.67,3361.32,600.47,603.88,4.92,0000 0000 0000 0000 000000
2016-02-28 10:18:41,0.12,0.63,0.00,22.47,26.90,30.63,14.63,46.46,1027.45,2033.93,3319.22,2964.16,3359.54,599.49,602.88,4.97,0000 0000 0000 0000 000000
2016-02-28 10:23:43,0.11,0.64,0.00,22.44,26.88,30.64,14.75,46.44,1027.37,2033.95,3316.97,2962.55,3357.52,599.74,603.22,5.02,0000 0000 0000 0000 000000
2016-02-28 10:28:44,0.08,0.64,0.00,22.42,26.87,30.59,14.69,46.40,1027.37,2033.96,3314.85,2961.29,3355.98,599.98,603.49,5.07,0000 0000 0000 0000 000000
2016-02-28 10:33:45,0.09,0.65,0.00,22.42,26.85,30.60,14.78,47.67,1027.36,2033.96,3312.72,2959.91,3354.62,600.32,603.90,5.12,0000 0000 0000 0000 000000
2016-02-28 10:38:46,0.10,0.65,0.00,22.41,26.82,30.52,14.68,47.01,1027.36,2033.99,3310.31,2958.52,3353.11,599.35,602.89,5.17,0000 0000 0000 0000 000000
2016-02-28 10:43:48,0.08,0.66,0.00,22.38,26.80,30.56,14.78,46.45,1027.36,2033.99,3308.60,2957.33,3351.49,600.44,603.98,5.22,0000 0000 0000 0000 000000
2016-02-28 10:48:49,0.07,0.66,0.00,22.35,26.79,30.51,14.81,46.44,1027.33,2033.99,3306.85,2956.30,3350.38,600.10,603.85,5.27,0000 0000 0000 0000 000000
2016-02-28 10:53:50,0.06,0.66,0.00,22.34,26.77,30.50,14.74,46.38,1027.29,2033.99,3305.18,2955.30,3349.21,600.26,603.88,5.32,0000 0000 0000 0000 000000
2016-02-28 10:58:52,0.08,0.67,0.00,22.31,26.76,30.44,14.78,46.37,1027.15,2034.00,3303.54,2954.23,3347.89,599.99,603.60,5.37,0000 0000 0000 0000 000000
2016-02-28 11:03:53,0.07,0.67,0.00,22.30,26.74,30.50,14.74,46.47,1026.89,2034.00,3301.96,2953.19,3346.52,600.56,604.04,5.42,0000 0000 0000 0000 000000
2016-02-28 11:08:55,0.09,0.68,0.00,22.27,26.71,30.44,14.81,47.99,1026.88,2034.03,3299.97,2951.92,3345.23,599.58,603.13,5.47,0000 0000 0000 0000 000000
2016-02-28 11:13:56,0.11,0.68,0.00,22.23,26.69,30.44,14.67,46.67,1026.87,2034.03,3297.47,2950.32,3343.27,599.69,603.30,5.52,0000 0000 0000 0000 000000
2016-02-28 11:18:57,0.13,0.69,0.00,22.21,26.67,30.43,14.70,46.34,1026.89,2034.19,3295.22,2948.76,3341.50,599.84,603.51,5.57,0000 0000 0000 0000 000000
2016-02-28 11:23:58,0.11,0.69,0.00,22.19,26.66,30.41,14.80,46.39,1026.89,2034.33,3293.07,2947.38,3339.54,600.10,603.81,5.62,0000 0000 0000 0000 000000
2016-02-28 11:28:59,0.16,0.70,0.00,22.15,26.64,30.41,14.73,46.47,1026.88,2034.57,3290.32,2945.75,3337.96,599.98,603.82,5.67,0000 0000 0000 0000 000000
2016-02-28 11:34:00,0.13,0.71,0.00,22.12,26.61,30.37,14.77,47.77,1026.87,2034.94,3287.56,2944.23,3336.29,600.40,604.25,5.72,0000 0000 0000 0000 000000
2016-02-28 11:39:01,0.12,0.71,0.00,22.11,26.58,30.33,14.74,47.64,1026.87,2034.97,3284.92,2942.53,3334.19,599.64,603.44,5.77,0000 0000 0000 0000 000000
2016-02-28 11:44:03,0.08,0.72,0.00,22.09,26.57,30.30,14.73,46.39,1026.87,2034.98,3283.28,2941.19,3332.30,599.97,603.88,5.82,0000 0000 0000 0000 000000
2016-02-28 11:49:04,0.08,0.72,0.00,22.05,26.57,30.26,14.74,46.41,1026.83,2034.98,3281.39,2940.06,3330.95,599.84,603.80,5.87,0000 0000 0000 0000 000000
2016-02-28 11:54:05,0.08,0.73,0.00,22.04,26.55,30.27,14.77,46.74,1026.66,2034.99,3279.63,2938.92,3329.71,600.36,604.22,5.92,0000 0000 0000 0000 000000
2016-02-28 11:59:06,0.09,0.73,0.00,22.01,26.52,30.25,14.72,47.46,1026.41,2034.99,3277.56,2937.72,3328.56,599.00,602.79,5.97,0000 0000 0000 0000 000000
2016-02-28 12:04:08,0.06,0.74,0.00,21.97,26.50,30.23,14.71,46.53,1026.39,2034.99,3275.97,2936.77,3327.29,599.75,603.56,6.02,0000 0000 0000 0000 000000
2016-02-28 12:09:09,0.07,0.74,0.00,21.95,26.48,30.20,14.72,46.48,1026.38,2035.01,3274.43,2935.83,3326.27,599.98,603.89,6.07,0000 0000 0000 0000 000000
2016-02-28 12:14:11,0.07,0.74,0.00,21.95,26.46,30.19,14.74,47.19,1026.38,2035.08,3272.98,2934.80,3324.95,600.44,604.29,6.12,0000 0000 0000 0000 000000
2016-02-28 12:19:12,0.08,0.75,0.00,21.92,26.42,30.16,14.81,47.05,1026.38,2035.08,3271.46,2933.77,3323.70,599.60,603.48,6.17,0000 0000 0000 0000 000000
2016-02-28 12:24:13,0.11,0.75,0.00,21.89,26.41,30.15,14.71,46.41,1026.38,2035.35,3269.73,2932.75,3322.49,600.02,604.11,6.22,0000 0000 0000 0000 000000
2016-02-28 12:29:15,0.12,0.76,0.00,21.88,26.40,30.14,14.71,46.27,1026.38,2035.80,3268.03,2931.59,3321.14,599.94,603.95,6.27,0000 0000 0000 0000 000000
2016-02-28 12:34:16,0.10,0.76,0.00,21.85,26.37,30.12,14.75,46.42,1026.20,2035.93,3265.88,2930.36,3319.62,600.08,604.09,6.32,0000 0000 0000 0000 000000
2016-02-28 12:39:18,0.08,0.77,0.00,21.82,26.35,30.12,14.73,46.57,1026.01,2035.97,3264.02,2929.15,3318.35,600.08,604.02,6.37,0000 0000 0000 0000 000000
2016-02-28 12:44:19,0.09,0.77,0.00,21.81,26.33,30.08,14.74,47.52,1026.00,2035.98,3262.14,2927.84,3316.83,600.04,604.12,6.42,0000 0000 0000 0000 000000
2016-02-28 12:49:20,0.06,0.78,0.00,21.77,26.30,30.07,14.77,46.74,1026.01,2035.99,3260.81,2926.88,3315.30,599.97,603.97,6.47,0000 0000 0000 0000 000000
2016-02-28 12:54:21,0.06,0.78,0.00,21.74,26.28,30.03,14.74,46.48,1025.93,2035.99,3259.47,2925.97,3314.37,600.01,603.99,6.52,0000 0000 0000 0000 000000
2016-02-28 12:59:22,0.07,0.78,0.00,21.71,26.26,29.97,14.71,46.49,1025.91,2035.99,3257.85,2925.00,3313.23,599.62,603.78,6.57,0000 0000 0000 0000 000000